Location: Cartignies
(50.0929°N, 3.8447°E)
Time: 14:56:19
(UTC+00:00)

Cosmos 1697 Rocket - Pass Details

Date: 12 January 2026
Orbit: 830 x 844 km, 71.0° (Epoch: 15 February)

Event Time Altitude Azimuth Distance (km) Brightness Sun altitude
Rises 18:50:32 0° 333° (NNW) 3,406 6.2 -25.5°
Reaches altitude 10° 18:53:07 10° 340° (NNW) 2,470 5.3 -25.9°
Enters shadow 18:56:40 33° 8° (N) 1,396 3.7 -26.4°
